This is the latest recevied weather packets stored in our database for station/object KD9JOU-13. If no packets are shown the sender has not sent any weather packets the latest 1 day(s).
| Time | Temp. | Humidity | Pressure | Rain* | Wind** | Luminosity | Snow |
|---|---|---|---|---|---|---|---|
| 1778031511 | 10° C | 95% | 1009.3 hPa | - | - | - | - |
| 1778031212 | 10.56° C | 95% | 1009.4 hPa | - | - | - | - |
| 1778030911 | 10.56° C | 95% | 1009.3 hPa | - | - | - | - |
| 1778030312 | 10.56° C | 95% | 1009.1 hPa | - | - | - | - |
| 1778030011 | 10° C | 95% | 1008.9 hPa | - | - | - | - |
| 1778029711 | 10.56° C | 95% | 1008.7 hPa | - | - | - | - |
| 1778029411 | 10.56° C | 95% | 1008.6 hPa | - | - | - | - |
| 1778029111 | 10.56° C | 95% | 1008.6 hPa | - | - | - | - |
| 1778028811 | 10.56° C | 95% | 1008.6 hPa | - | - | - | - |
| 1778028511 | 10.56° C | 95% | 1008.3 hPa | - | - | - | - |
| 1778028211 | 10.56° C | 95% | 1009.1 hPa | - | - | - | - |
| 1778027611 | 10.56° C | 95% | 1009.1 hPa | - | - | - | - |
| 1778027314 | 10.56° C | 95% | 1009.2 hPa | - | - | - | - |
| 1778020113 | 12.22° C | 95% | 1009.3 hPa | - | - | - | - |
| 1778019812 | 12.22° C | 95% | 1009.3 hPa | - | - | - | - |
| 1778018312 | 12.78° C | 95% | 1009 hPa | - | - | - | - |
| 1778017713 | 12.78° C | 95% | 1008.8 hPa | - | - | - | - |
| 1778017113 | 12.78° C | 95% | 1008.8 hPa | - | - | - | - |
| 1778016813 | 12.78° C | 95% | 1008.7 hPa | - | - | - | - |
| 1778015612 | 14.44° C | 95% | 1008.5 hPa | - | - | - | - |
| 1778015012 | 16.11° C | 95% | 1008.3 hPa | - | - | - | - |
| 1778013812 | 16.67° C | 95% | 1007.9 hPa | - | - | - | - |
| 1778012912 | 16.67° C | 95% | 1007.9 hPa | - | - | - | - |
| 1778011711 | 16.67° C | 95% | 1008.1 hPa | - | - | - | - |
| 1778010512 | 16.67° C | 94% | 1008.3 hPa | - | - | - | - |
* Rain since midnight (hover to see other rain measurements)
** Current wind speed in m/s (hover to see current wind gust speed)